Time[GMT],salinity[psu](20m),sigma_t[kg/m^3](20m),conductivity[msiemens/cm](20m),temperature[C](20m)
2016-07-07 21:00,32.079,24.913,33.884,8.46
2016-07-07 22:00,32.091,24.941,33.792,8.34
2016-07-08 00:00,32.017,24.843,33.955,8.61
2016-07-08 01:00,32.083,24.879,34.105,8.71
2016-07-08 04:00,32.062,25.056,32.929,7.37
2016-07-08 06:00,32.119,25.008,33.550,8.03
2016-07-08 07:00,32.137,25.030,33.515,7.97
2016-07-08 09:00,32.075,24.846,34.254,8.89
2016-07-08 10:00,31.995,24.756,34.333,9.07
2016-07-08 12:00,32.068,24.918,33.796,8.37
2016-07-08 13:00,32.028,24.887,33.758,8.37
2016-07-08 14:00,32.020,25.060,32.650,7.09
2016-07-08 15:00,31.975,24.993,32.814,7.33
2016-07-08 16:00,,,,
2016-07-08 17:00,31.963,24.960,32.948,7.50
2016-07-08 19:00,31.783,24.724,33.353,8.17
2016-07-08 20:00,31.951,24.631,34.786,9.64
2016-07-08 21:00,31.979,24.904,33.384,7.99
2016-07-08 22:00,32.041,24.932,33.563,8.13
2016-07-08 23:00,32.071,24.950,33.626,8.17
2016-07-09 00:00,32.043,24.928,33.599,8.17
2016-07-09 01:00,32.061,24.986,33.358,7.87
2016-07-09 02:00,32.059,24.998,33.270,7.77
2016-07-09 04:00,32.015,24.832,34.005,8.67
2016-07-09 05:00,32.031,24.874,33.847,8.47
2016-07-09 06:00,32.054,24.910,33.765,8.35
2016-07-09 07:00,32.123,24.937,33.996,8.54
2016-07-09 08:00,32.069,24.929,33.736,8.30
2016-07-09 09:00,32.016,24.854,33.885,8.53
2016-07-09 10:00,31.983,24.844,33.758,8.42
2016-07-09 11:00,32.003,24.857,33.795,8.44
2016-07-09 12:00,32.036,25.002,33.111,7.61
2016-07-09 14:00,32.032,25.022,32.961,7.44
2016-07-09 15:00,32.044,24.981,33.281,7.80
2016-07-09 16:00,32.007,24.918,33.453,8.04
2016-07-09 17:00,32.048,24.924,33.647,8.22
2016-07-09 18:00,32.047,24.848,34.088,8.73
2016-07-09 19:00,32.067,24.944,33.639,8.19
2016-07-09 20:00,32.010,24.827,34.009,8.68
2016-07-09 21:00,32.015,24.782,34.291,9.00
2016-07-09 23:00,32.036,24.847,34.034,8.68
2016-07-10 00:00,32.032,24.919,33.589,8.17
2016-07-10 01:00,31.924,24.676,34.394,9.22
2016-07-10 02:00,32.041,24.863,33.969,8.60
2016-07-10 03:00,32.029,24.914,33.603,8.19
2016-07-10 04:00,32.019,24.849,33.931,8.58
2016-07-10 05:00,32.056,24.914,33.759,8.34
2016-07-10 06:00,32.003,24.864,33.751,8.39
2016-07-10 07:00,31.975,24.738,34.322,9.08
2016-07-10 09:00,31.998,24.807,34.058,8.75
2016-07-10 10:00,31.991,24.783,34.155,8.87
2016-07-10 11:00,31.998,24.773,34.249,8.97
2016-07-10 12:00,31.983,24.791,34.070,8.78
2016-07-10 13:00,31.988,24.868,33.651,8.29
2016-07-10 14:00,32.303,25.018,34.508,8.93
2016-07-10 15:00,32.004,24.623,35.100,9.94
2016-07-10 16:00,31.879,24.450,35.379,10.40
2016-07-10 18:00,31.940,24.566,35.081,9.99
2016-07-10 19:00,32.111,24.813,34.628,9.28
2016-07-10 20:00,31.836,24.132,36.753,12.01
2016-07-10 21:00,31.784,24.039,36.947,12.29
2016-07-10 22:00,31.929,24.348,36.141,11.21
2016-07-10 23:00,31.767,24.065,36.743,12.08
2016-07-11 00:00,31.843,24.217,36.371,11.57
2016-07-11 01:00,31.906,24.297,36.285,11.40
2016-07-11 02:00,31.847,24.235,36.304,11.49
2016-07-11 04:00,31.781,24.160,36.351,11.62
2016-07-11 05:00,31.809,24.169,36.442,11.69
2016-07-11 06:00,31.867,24.474,35.192,10.20
2016-07-11 07:00,31.835,24.269,36.081,11.25
2016-07-11 08:00,31.839,24.307,35.909,11.05
2016-07-11 09:00,31.769,23.835,37.820,13.29
2016-07-11 10:00,31.925,24.420,35.758,10.78
2016-07-11 11:00,31.843,24.253,36.194,11.37
2016-07-11 13:00,31.806,24.043,37.032,12.36
2016-07-11 14:00,31.798,24.116,36.642,11.93
2016-07-11 15:00,31.811,24.129,36.647,11.92
2016-07-11 16:00,31.776,24.079,36.717,12.04
2016-07-11 17:00,31.813,24.158,36.517,11.77
2016-07-11 18:00,31.884,24.515,35.060,10.03
2016-07-11 19:00,31.927,24.638,34.623,9.48
2016-07-11 20:00,31.857,24.426,35.392,10.44
2016-07-11 22:00,31.757,24.209,35.992,11.24
2016-07-11 23:00,31.790,24.131,36.537,11.82
2016-07-12 00:00,31.856,24.235,36.349,11.53
2016-07-12 01:00,31.720,23.862,37.474,12.96
2016-07-12 02:00,31.721,23.835,37.600,13.10
2016-07-12 03:00,31.725,23.870,37.462,12.94
2016-07-12 04:00,31.746,23.755,38.072,13.60
2016-07-12 05:00,31.709,23.765,37.863,13.41
2016-07-12 06:00,31.801,24.137,36.557,11.83
2016-07-12 08:00,31.761,24.127,36.419,11.72
2016-07-12 09:00,31.801,24.206,36.222,11.45
2016-07-12 10:00,31.803,24.200,36.259,11.49
2016-07-12 11:00,31.813,24.228,36.173,11.38
2016-07-12 12:00,31.838,24.293,35.969,11.12
2016-07-12 13:00,31.732,24.047,36.662,12.03
2016-07-12 14:00,31.988,24.341,36.467,11.51
2016-07-12 15:00,31.757,23.965,37.167,12.57
2016-07-12 17:00,31.710,23.762,37.882,13.43
2016-07-12 18:00,31.727,23.796,37.802,13.32
2016-07-12 19:00,31.729,23.790,37.840,13.36
2016-07-12 20:00,31.896,24.219,36.620,11.79
2016-07-12 21:00,31.772,24.086,36.669,11.99
2016-07-12 22:00,31.735,24.049,36.665,12.03
2016-07-12 23:00,31.869,24.148,36.831,12.06
2016-07-13 00:00,31.842,24.202,36.441,11.65
2016-07-13 01:00,31.710,23.773,37.828,13.37
2016-07-13 03:00,31.717,23.785,37.809,13.34
2016-07-13 04:00,31.725,23.801,37.773,13.29
2016-07-13 05:00,31.652,23.526,38.660,14.37
2016-07-13 06:00,31.634,23.447,38.918,14.68
2016-07-13 07:00,31.762,23.796,37.965,13.46
2016-07-13 08:00,31.810,24.178,36.408,11.65
2016-07-13 09:00,31.810,24.175,36.416,11.66
2016-07-13 10:00,31.843,24.275,36.089,11.25
2016-07-13 12:00,31.707,24.026,36.645,12.04
2016-07-13 13:00,31.849,24.262,36.183,11.35
2016-07-13 14:00,31.888,24.288,36.240,11.37
2016-07-13 15:00,31.754,23.851,37.679,13.15
2016-07-13 16:00,31.741,23.874,37.514,12.98
2016-07-13 17:00,31.729,23.871,37.475,12.95
2016-07-13 18:00,31.729,23.810,37.751,13.26
2016-07-13 19:00,31.740,23.830,37.709,13.20
2016-07-13 21:00,31.758,23.939,37.292,12.71
2016-07-13 22:00,31.933,24.471,35.538,10.52
2016-07-13 23:00,31.822,24.205,36.332,11.55
2016-07-14 00:00,31.868,24.368,35.745,10.83
2016-07-14 01:00,31.713,23.920,37.174,12.63
2016-07-14 02:00,31.848,24.266,36.155,11.32
2016-07-14 03:00,31.804,24.134,36.587,11.86
2016-07-14 04:00,31.940,24.179,37.021,12.19
2016-07-14 05:00,31.733,24.189,35.977,11.25
2016-07-14 07:00,31.988,24.655,34.848,9.67
2016-07-14 08:00,31.890,24.535,34.988,9.94
2016-07-14 09:00,31.847,24.410,35.426,10.49
2016-07-14 10:00,31.778,24.150,36.383,11.66
2016-07-14 11:00,31.967,24.467,35.730,10.70
2016-07-14 12:00,31.951,24.511,35.424,10.37
2016-07-14 13:00,31.888,24.383,35.765,10.83
2016-07-14 14:00,31.923,24.521,35.230,10.18
2016-07-14 16:00,31.790,24.107,36.652,11.95
2016-07-14 17:00,31.825,24.241,36.167,11.36
2016-07-14 18:00,31.863,24.302,36.047,11.18
2016-07-14 19:00,31.867,24.495,35.078,10.07
2016-07-14 20:00,31.920,24.486,35.393,10.37
2016-07-14 21:00,31.939,24.568,35.062,9.97
2016-07-14 22:00,31.925,24.549,35.092,10.02
2016-07-14 23:00,31.930,24.479,35.482,10.46
2016-07-15 00:00,31.981,24.452,35.876,10.85
2016-07-15 02:00,31.885,24.410,35.613,10.66
2016-07-15 03:00,31.882,24.363,35.838,10.92
2016-07-15 04:00,,,,
2016-07-15 05:00,,,,
2016-07-15 06:00,32.045,24.623,35.316,10.14
2016-07-15 07:00,31.953,24.524,35.365,10.30
2016-07-15 08:00,31.888,24.345,35.958,11.05
2016-07-15 09:00,31.976,24.597,35.099,9.97
2016-07-15 11:00,31.951,24.579,35.065,9.96
2016-07-15 12:00,31.896,24.451,35.457,10.47
2016-07-15 13:00,31.986,24.558,35.354,10.25
2016-07-15 14:00,31.902,24.492,35.270,10.25
2016-07-15 15:00,31.974,24.633,34.896,9.74
2016-07-15 16:00,31.964,24.602,35.008,9.88
2016-07-15 17:00,31.929,24.606,34.808,9.69
2016-07-15 18:00,31.955,24.572,35.122,10.02
2016-07-15 19:00,32.163,24.689,35.565,10.29
2016-07-15 21:00,31.994,24.671,34.793,9.60
2016-07-15 22:00,32.107,24.860,34.345,8.96
2016-07-15 23:00,32.072,24.759,34.721,9.43
2016-07-16 00:00,32.067,24.742,34.786,9.51
2016-07-16 01:00,32.132,24.750,35.086,9.78
2016-07-16 02:00,32.018,24.671,34.922,9.72
2016-07-16 03:00,32.047,24.815,34.279,8.95
2016-07-16 04:00,32.006,24.869,33.746,8.38
2016-07-16 06:00,31.976,24.762,34.193,8.93
2016-07-16 07:00,32.019,24.825,34.070,8.74
2016-07-16 08:00,31.996,24.885,33.589,8.21
2016-07-16 09:00,31.990,24.857,33.722,8.37
2016-07-16 10:00,32.032,24.883,33.805,8.42
2016-07-16 11:00,32.118,24.893,34.217,8.80
2016-07-16 12:00,32.127,24.852,34.495,9.11
2016-07-16 13:00,32.140,24.846,34.604,9.22
2016-07-16 14:00,32.260,24.925,34.799,9.31
2016-07-16 16:00,32.173,24.933,34.287,8.82
2016-07-16 17:00,32.178,24.863,34.711,9.30
2016-07-16 18:00,32.095,24.784,34.709,9.39
2016-07-16 19:00,32.129,24.823,34.672,9.31
2016-07-16 20:00,32.176,24.883,34.586,9.16
2016-07-16 21:00,32.066,24.860,34.123,8.75
2016-07-16 22:00,31.998,24.767,34.284,9.01
2016-07-16 23:00,32.107,24.922,33.989,8.55
2016-07-17 01:00,32.032,24.815,34.195,8.87
2016-07-17 02:00,32.027,24.941,33.429,7.99
2016-07-17 03:00,31.983,24.801,34.009,8.71
2016-07-17 04:00,32.012,24.848,33.898,8.55
2016-07-17 05:00,32.109,24.969,33.722,8.24
2016-07-17 06:00,32.041,24.985,33.244,7.76
2016-07-17 07:00,32.048,24.826,34.219,8.88
2016-07-17 08:00,31.995,24.906,33.459,8.06
2016-07-17 10:00,32.041,24.657,35.110,9.91
2016-07-17 11:00,32.035,24.683,34.938,9.72
2016-07-17 12:00,32.106,24.789,34.737,9.41
2016-07-17 13:00,32.044,24.742,34.668,9.40
2016-07-17 14:00,32.119,24.885,34.270,8.86
2016-07-17 15:00,32.064,24.822,34.330,8.99
2016-07-17 16:00,32.084,24.843,34.314,8.95
2016-07-17 17:00,32.055,24.813,34.330,9.00
2016-07-17 18:00,32.052,24.829,34.223,8.88
2016-07-17 20:00,32.192,24.749,35.400,10.07
2016-07-17 21:00,32.010,24.814,34.078,8.76
2016-07-17 22:00,32.020,24.818,34.114,8.79
2016-07-17 23:00,31.992,24.817,33.966,8.65
2016-07-18 00:00,32.103,24.958,33.760,8.29
2016-07-18 01:00,32.056,24.869,34.018,8.64
2016-07-18 02:00,32.047,24.801,34.357,9.04
2016-07-18 03:00,32.109,24.809,34.644,9.30
2016-07-18 05:00,32.099,24.954,33.756,8.29
2016-07-18 06:00,32.053,24.859,34.059,8.69
2016-07-18 07:00,32.042,24.952,33.452,8.00
2016-07-18 08:00,32.070,24.982,33.426,7.94
2016-07-18 09:00,32.034,24.956,33.384,7.93
2016-07-18 10:00,32.025,24.943,33.410,7.97
2016-07-18 11:00,32.010,24.892,33.629,8.24
2016-07-18 12:00,32.171,24.953,34.163,8.68
2016-07-18 13:00,32.066,24.857,34.141,8.77
2016-07-18 15:00,32.078,24.862,34.178,8.80
2016-07-18 16:00,32.112,24.811,34.647,9.30
2016-07-18 17:00,32.116,24.761,34.939,9.63
2016-07-18 18:00,32.135,24.654,35.608,10.37
2016-07-18 19:00,32.125,24.670,35.475,10.23
2016-07-18 20:00,32.147,24.700,35.426,10.15
2016-07-18 21:00,32.068,24.689,35.085,9.85
2016-07-18 22:00,32.127,24.785,34.871,9.54
2016-07-19 00:00,32.136,24.907,34.234,8.80
2016-07-19 01:00,32.160,24.929,34.240,8.78
2016-07-19 02:00,32.234,24.874,34.940,9.50
2016-07-19 03:00,32.244,24.847,35.143,9.72
2016-07-19 04:00,32.029,24.653,35.072,9.88
2016-07-19 05:00,32.038,24.686,34.941,9.72
2016-07-19 06:00,32.088,24.646,35.411,10.20
2016-07-19 07:00,32.068,24.764,34.674,9.38
2016-07-19 08:00,32.077,24.773,34.674,9.37
2016-07-19 10:00,32.060,24.780,34.544,9.24
2016-07-19 11:00,32.079,24.804,34.510,9.18
2016-07-19 12:00,32.049,24.781,34.481,9.18
2016-07-19 13:00,32.061,24.782,34.536,9.23
2016-07-19 14:00,32.021,24.727,34.628,9.38
2016-07-19 15:00,32.043,24.785,34.423,9.12
2016-07-19 16:00,32.025,24.733,34.614,9.36
2016-07-19 17:00,32.044,24.698,34.903,9.67
2016-07-19 19:00,32.052,24.721,34.824,9.57
2016-07-19 20:00,32.081,24.756,34.782,9.49
2016-07-19 21:00,32.091,24.772,34.748,9.44
2016-07-19 22:00,32.117,24.659,35.493,10.26
2016-07-19 23:00,32.145,24.730,35.257,9.96
2016-07-20 00:00,32.062,24.697,35.009,9.77
2016-07-20 01:00,32.119,24.489,36.370,11.25
2016-07-20 02:00,31.964,24.619,34.921,9.78
2016-07-20 03:00,31.990,24.604,35.130,9.99
2016-07-20 05:00,32.237,24.820,35.251,9.85
2016-07-20 06:00,,,,
2016-07-20 07:00,32.146,24.800,34.890,9.54
2016-07-20 08:00,32.022,24.847,33.960,8.61
2016-07-20 09:00,32.059,24.911,33.787,8.37
2016-07-20 10:00,31.994,24.776,34.210,8.93
2016-07-20 11:00,31.991,24.348,36.443,11.48
2016-07-20 12:00,31.995,24.542,35.486,10.39
2016-07-20 14:00,32.014,24.613,35.206,10.05
2016-07-20 15:00,32.029,24.684,34.906,9.69
2016-07-20 16:00,32.004,24.705,34.664,9.44
2016-07-20 17:00,31.999,24.710,34.606,9.38
2016-07-20 18:00,32.251,24.953,34.598,9.09
2016-07-20 19:00,32.021,24.776,34.358,9.07
2016-07-20 20:00,32.046,24.692,34.949,9.72
2016-07-20 21:00,32.033,24.660,35.059,9.86
2016-07-20 23:00,31.961,24.334,36.368,11.43
2016-07-21 00:00,32.163,24.639,35.830,10.59
2016-07-21 01:00,31.969,24.457,35.794,10.77
2016-07-21 02:00,31.996,24.652,34.909,9.73
2016-07-21 03:00,32.048,24.861,34.019,8.65
2016-07-21 04:00,32.005,24.835,33.935,8.60
2016-07-21 05:00,32.019,24.816,34.122,8.80
2016-07-21 06:00,32.023,24.826,34.082,8.75
2016-07-21 07:00,32.045,24.895,33.809,8.41
2016-07-21 09:00,32.800,25.255,35.831,9.88
2016-07-21 10:00,32.098,24.840,34.406,9.04
2016-07-21 11:00,32.136,24.622,35.776,10.56
2016-07-21 12:00,31.895,24.240,36.513,11.67
2016-07-21 13:00,31.892,24.286,36.271,11.40
2016-07-21 14:00,32.000,24.655,34.913,9.73
2016-07-21 15:00,32.024,24.633,35.155,9.98
2016-07-21 16:00,32.063,24.749,34.730,9.45
2016-07-21 18:00,31.997,24.650,34.918,9.74
2016-07-21 19:00,31.993,24.577,35.291,10.17
2016-07-21 20:00,32.045,24.735,34.712,9.45
2016-07-21 21:00,32.043,24.835,34.145,8.80
2016-07-21 22:00,32.045,24.652,35.158,9.96
2016-07-21 23:00,32.019,24.610,35.246,10.09
2016-07-22 00:00,32.211,24.702,35.746,10.44
2016-07-22 01:00,31.947,24.543,35.236,10.16
2016-07-22 02:00,32.002,24.628,35.063,9.90
2016-07-22 04:00,31.975,24.622,34.958,9.81
2016-07-22 05:00,32.023,24.787,34.308,9.01
2016-07-22 06:00,32.020,24.769,34.392,9.11
2016-07-22 07:00,31.979,24.622,34.979,9.83
2016-07-22 08:00,32.032,24.742,34.604,9.34
2016-07-22 09:00,32.019,24.706,34.730,9.50
2016-07-22 10:00,,,,
2016-07-22 11:00,31.998,24.614,35.121,9.97
2016-07-22 13:00,31.940,24.484,35.510,10.48
2016-07-22 14:00,31.969,24.561,35.249,10.15
2016-07-22 15:00,31.989,24.596,35.173,10.04
2016-07-22 16:00,31.998,24.629,35.042,9.88
2016-07-22 17:00,32.009,24.765,34.355,9.08
2016-07-22 18:00,32.016,24.784,34.284,8.99
2016-07-22 19:00,32.020,24.808,34.175,8.86
2016-07-22 22:00,31.992,24.564,35.351,10.24
2016-07-22 23:00,31.943,24.450,35.697,10.69
2016-07-23 00:00,31.956,24.450,35.763,10.75
2016-07-23 01:00,31.949,24.369,36.135,11.18
2016-07-23 02:00,31.977,24.503,35.600,10.54
2016-07-23 03:00,31.983,24.611,35.062,9.92
2016-07-23 04:00,,,,
2016-07-23 05:00,,,,
2016-07-23 06:00,31.972,24.679,34.632,9.44
2016-07-23 08:00,,,,
2016-07-23 09:00,32.049,24.862,34.020,8.65
2016-07-23 10:00,,,,
2016-07-23 11:00,31.949,24.557,35.168,10.08
2016-07-23 12:00,31.985,24.653,34.846,9.67
2016-07-23 13:00,32.065,24.665,35.196,9.98
2016-07-23 14:00,31.985,24.646,34.880,9.71
2016-07-23 15:00,31.950,24.543,35.248,10.17
2016-07-23 17:00,32.010,24.695,34.748,9.53
2016-07-23 18:00,32.073,24.737,34.844,9.57
2016-07-23 19:00,32.106,24.695,35.245,9.99
2016-07-23 20:00,32.012,24.447,36.058,11.02
2016-07-23 21:00,32.049,24.490,36.025,10.94
2016-07-23 22:00,32.056,24.489,36.058,10.97
2016-07-23 23:00,32.103,24.499,36.238,11.12
2016-07-24 00:00,32.117,24.507,36.270,11.14
2016-07-24 01:00,31.913,24.237,36.611,11.76
2016-07-24 03:00,31.983,24.627,34.975,9.82
2016-07-24 04:00,32.146,24.660,35.637,10.39
2016-07-24 05:00,31.996,24.526,35.575,10.49
2016-07-24 06:00,32.068,24.561,35.752,10.61
2016-07-24 07:00,32.117,24.647,35.555,10.33
2016-07-24 08:00,32.104,24.697,35.225,9.97
2016-07-24 09:00,32.034,24.704,34.824,9.59
2016-07-24 10:00,32.045,24.711,34.843,9.60
2016-07-24 12:00,32.033,24.600,35.374,10.22
2016-07-24 13:00,31.979,24.479,35.734,10.69
2016-07-24 14:00,31.997,24.615,35.111,9.96
2016-07-24 15:00,31.956,24.458,35.719,10.70
2016-07-24 16:00,31.961,24.587,35.075,9.96
2016-07-24 17:00,31.992,24.774,34.208,8.93
2016-07-24 18:00,32.066,24.811,34.401,9.07
2016-07-24 19:00,32.110,24.757,34.933,9.63
2016-07-24 20:00,32.224,24.999,34.188,8.65
2016-07-24 22:00,32.065,24.875,34.036,8.65
2016-07-24 23:00,32.023,24.705,34.761,9.53
2016-07-25 00:00,32.101,24.798,34.662,9.33
2016-07-25 01:00,31.967,24.519,35.467,10.40
2016-07-25 02:00,31.977,24.277,36.721,11.81
2016-07-25 03:00,31.946,24.378,36.079,11.12
2016-07-25 04:00,32.021,24.530,35.679,10.58
2016-07-25 05:00,32.147,24.821,34.777,9.41
2016-07-25 07:00,32.265,24.905,34.936,9.46
2016-07-25 08:00,32.239,24.843,35.139,9.72
2016-07-25 09:00,32.174,24.813,34.961,9.59
2016-07-25 10:00,32.123,24.871,34.369,8.97
2016-07-25 11:00,32.061,24.731,34.815,9.55
2016-07-25 12:00,32.083,24.692,35.143,9.90
2016-07-25 13:00,31.947,24.600,34.930,9.81
2016-07-25 14:00,32.031,24.641,35.144,9.96
2016-07-25 16:00,32.026,24.661,35.017,9.82
2016-07-25 17:00,32.069,24.804,34.457,9.13
2016-07-25 18:00,32.045,24.767,34.538,9.25
2016-07-25 19:00,32.069,24.826,34.335,8.99
2016-07-25 20:00,32.061,24.794,34.466,9.15
2016-07-25 21:00,32.031,24.704,34.803,9.57
2016-07-25 22:00,32.078,24.803,34.509,9.18
2016-07-25 23:00,31.999,24.615,35.122,9.97
2016-07-26 00:00,32.006,24.602,35.225,10.08
2016-07-26 02:00,32.025,24.617,35.244,10.08
2016-07-26 03:00,31.955,24.453,35.745,10.73
2016-07-26 04:00,32.006,24.569,35.400,10.28
2016-07-26 05:00,32.035,24.668,35.026,9.82
2016-07-26 06:00,32.038,24.720,34.758,9.51
2016-07-26 07:00,,,,
2016-07-26 08:00,32.014,24.717,34.647,9.41
2016-07-26 09:00,32.085,24.864,34.202,8.82
2016-07-26 11:00,32.007,24.627,35.094,9.93
2016-07-26 12:00,32.060,24.566,35.692,10.55
2016-07-26 13:00,32.059,24.650,35.242,10.04
2016-07-26 14:00,32.011,24.588,35.326,10.19
2016-07-26 15:00,31.993,24.532,35.528,10.44
2016-07-26 16:00,32.009,24.539,35.570,10.47
2016-07-26 17:00,32.179,24.695,35.616,10.33
2016-07-26 18:00,32.023,24.712,34.726,9.49
2016-07-26 19:00,31.980,24.658,34.788,9.61
2016-07-26 21:00,32.014,24.643,35.049,9.87
2016-07-26 22:00,32.023,24.652,35.049,9.86
2016-07-26 23:00,32.040,24.653,35.127,9.93
2016-07-27 00:00,32.076,24.677,35.189,9.96
2016-07-27 01:00,32.022,24.652,35.039,9.85
2016-07-27 02:00,32.044,24.710,34.842,9.60
2016-07-27 03:00,32.045,24.717,34.808,9.56
2016-07-27 04:00,32.095,24.628,35.542,10.34
2016-07-27 06:00,32.110,24.790,34.749,9.42
2016-07-27 07:00,32.168,24.908,34.404,8.96
2016-07-27 08:00,32.305,24.940,34.957,9.44
2016-07-27 09:00,32.287,24.905,35.054,9.57
2016-07-27 10:00,32.275,24.894,35.051,9.58
2016-07-27 11:00,32.270,24.833,35.354,9.93
2016-07-27 12:00,32.012,24.545,35.556,10.45
2016-07-27 13:00,31.953,24.383,36.086,11.12
2016-07-27 14:00,31.242,23.141,38.503,14.70
2016-07-27 16:00,32.155,24.890,34.435,9.01
2016-07-27 17:00,32.018,24.695,34.791,9.57
2016-07-27 18:00,32.128,24.772,34.942,9.62
2016-07-27 19:00,32.122,24.742,35.076,9.78
2016-07-27 20:00,32.083,24.834,34.366,9.01
2016-07-27 21:00,32.166,24.848,34.725,9.33
2016-07-27 22:00,32.024,24.659,35.015,9.82
2016-07-27 23:00,32.028,24.693,34.853,9.63
2016-07-28 01:00,31.995,24.518,35.609,10.53
2016-07-28 02:00,32.029,24.676,34.950,9.74
2016-07-28 03:00,32.041,24.717,34.787,9.54
2016-07-28 04:00,32.030,24.659,35.047,9.85
2016-07-28 06:00,32.041,24.683,34.970,9.75
2016-07-28 07:00,32.050,24.744,34.691,9.42
2016-07-28 08:00,32.094,24.835,34.420,9.06
2016-07-28 10:00,32.056,24.803,34.392,9.07
2016-07-28 11:00,32.076,24.802,34.507,9.18
2016-07-28 12:00,32.053,24.766,34.580,9.29
2016-07-28 13:00,32.065,24.738,34.802,9.53
2016-07-28 14:00,32.007,24.551,35.498,10.39
2016-07-28 15:00,32.104,24.792,34.709,9.38
2016-07-28 16:00,32.079,24.664,35.271,10.05
2016-07-28 17:00,32.038,24.463,36.102,11.04
2016-07-28 18:00,31.988,24.471,35.813,10.77
2016-07-28 20:00,32.010,24.587,35.325,10.19
2016-07-28 21:00,32.039,24.641,35.187,10.00
2016-07-28 22:00,32.092,24.784,34.688,9.37
2016-07-28 23:00,32.193,24.763,35.331,9.99
2016-07-29 00:00,32.132,24.672,35.499,10.25
2016-07-29 01:00,32.053,24.703,34.930,9.69
2016-07-29 02:00,32.010,24.595,35.281,10.14
2016-07-29 03:00,32.083,24.717,35.012,9.75
2016-07-29 05:00,32.085,24.459,36.353,11.27
2016-07-29 06:00,32.067,24.628,35.399,10.21
2016-07-29 07:00,32.057,24.612,35.433,10.26
2016-07-29 08:00,32.048,24.596,35.468,10.31
2016-07-29 09:00,32.123,24.793,34.806,9.47
2016-07-29 10:00,32.045,24.629,35.281,10.10
2016-07-29 11:00,32.115,24.849,34.449,9.07
2016-07-29 12:00,32.121,24.832,34.577,9.21
2016-07-29 13:00,32.116,24.822,34.607,9.25
2016-07-29 15:00,32.114,24.744,35.025,9.73
2016-07-29 16:00,32.132,24.772,34.963,9.64
2016-07-29 17:00,32.260,24.883,35.027,9.57
2016-07-29 18:00,31.838,23.974,37.501,12.85
2016-07-29 19:00,32.039,24.585,35.486,10.34
2016-07-29 20:00,32.181,24.805,35.047,9.68
2016-07-29 21:00,32.205,24.807,35.158,9.78
2016-07-29 22:00,32.130,24.861,34.463,9.07
2016-07-30 00:00,32.351,24.821,35.832,10.38
2016-07-30 01:00,32.180,24.604,36.095,10.87
2016-07-30 02:00,32.111,24.709,35.197,9.93
2016-07-30 03:00,32.006,24.637,35.041,9.87
2016-07-30 04:00,31.913,24.385,35.878,10.93
2016-07-30 05:00,31.913,24.384,35.887,10.94
2016-07-30 06:00,32.137,24.684,35.460,10.20
2016-07-30 07:00,32.401,24.809,36.149,10.68
2016-07-30 08:00,32.054,24.687,35.018,9.79
2016-07-30 10:00,32.019,24.624,35.176,10.01
2016-07-30 11:00,32.097,24.708,35.131,9.87
2016-07-30 12:00,32.039,24.618,35.310,10.14
2016-07-30 13:00,31.978,24.479,35.724,10.68
2016-07-30 14:00,31.972,24.468,35.753,10.72
2016-07-30 15:00,32.092,24.524,36.059,10.93
2016-07-30 16:00,32.112,24.667,35.427,10.19
2016-07-30 17:00,32.262,24.622,36.409,11.13
2016-07-30 19:00,31.960,24.443,35.820,10.81
2016-07-30 20:00,32.001,24.470,35.888,10.84
2016-07-30 21:00,32.020,24.570,35.467,10.34
2016-07-30 22:00,32.015,24.564,35.471,10.35
2016-07-30 23:00,32.019,24.545,35.589,10.48
2016-07-31 00:00,32.029,24.580,35.458,10.32
2016-07-31 01:00,31.907,24.191,36.809,11.99
2016-07-31 02:00,31.953,24.242,36.776,11.90
2016-07-31 04:00,32.012,24.573,35.406,10.28
2016-07-31 05:00,32.031,24.626,35.223,10.05
2016-07-31 06:00,32.045,24.639,35.228,10.04
2016-07-31 07:00,32.065,24.668,35.178,9.96
2016-07-31 08:00,32.071,24.661,35.245,10.03
2016-07-31 09:00,32.126,24.712,35.256,9.98
2016-07-31 10:00,32.000,24.520,35.623,10.54
2016-07-31 11:00,32.087,24.736,34.928,9.65
2016-07-31 12:00,32.032,24.604,35.347,10.19
2016-07-31 14:00,32.092,24.639,35.468,10.26
2016-07-31 15:00,32.162,24.615,35.944,10.72
2016-07-31 16:00,32.073,24.544,35.863,10.73
2016-07-31 17:00,32.187,24.663,35.828,10.56
2016-07-31 18:00,32.013,24.560,35.477,10.36
2016-07-31 19:00,31.908,24.158,36.970,12.17
2016-07-31 20:00,32.035,24.545,35.666,10.55
2016-07-31 21:00,32.047,24.595,35.467,10.31
2016-07-31 23:00,32.079,24.642,35.385,10.18
2016-08-01 00:00,32.236,24.702,35.868,10.55
2016-08-01 01:00,32.223,24.699,35.819,10.51
2016-08-01 02:00,32.164,24.371,37.164,12.09
2016-08-01 03:00,32.175,24.439,36.890,11.77
2016-08-01 04:00,32.200,24.642,36.000,10.74
2016-08-01 05:00,32.162,24.454,36.752,11.63
2016-08-01 06:00,31.992,24.424,36.073,11.06
2016-08-01 07:00,32.126,24.541,36.147,10.99
2016-08-01 09:00,31.909,24.077,37.353,12.60
2016-08-01 10:00,32.000,24.297,36.736,11.80
2016-08-01 11:00,32.082,24.604,35.599,10.42
2016-08-01 12:00,32.153,24.643,35.758,10.52
2016-08-01 13:00,32.312,24.426,37.606,12.41
2016-08-01 14:00,32.089,24.080,38.171,13.30
2016-08-01 15:00,32.221,24.513,36.750,11.56
2016-08-01 16:00,32.271,24.724,35.929,10.58
2016-08-01 18:00,32.469,24.707,36.995,11.55
2016-08-01 19:00,32.169,24.571,36.208,11.01
2016-08-01 20:00,32.199,24.490,36.754,11.59
2016-08-01 21:00,32.086,24.655,35.357,10.14
2016-08-01 23:00,32.082,24.618,35.529,10.34
2016-08-02 00:00,32.144,24.700,35.414,10.14
2016-08-02 01:00,32.132,24.402,36.864,11.79
2016-08-02 02:00,32.172,24.433,36.905,11.79
2016-08-02 04:00,32.025,24.391,36.398,11.39
2016-08-02 05:00,32.011,24.377,36.402,11.41
2016-08-02 06:00,32.049,24.496,35.989,10.90
2016-08-02 07:00,32.058,24.550,35.760,10.63
2016-08-02 08:00,31.951,24.232,36.819,11.95
2016-08-02 09:00,32.002,24.326,36.605,11.65
2016-08-02 10:00,32.044,24.452,36.187,11.13